Regional Weather Roundup
Issued by NWS Tiyan, Guam

Current Version | Previous Version | Text Only | Print | Product List | Glossary On
Versions: 1 2 3 4 5 6 7 8 9 10 11 12 13 14 15 16 17 18 19 20 21 22 23 24 25 26 27 28 29 30 31 32 33 34 35 36 37 38 39 40 41 42 43 44 45 46 47 48 49 50
000
ASGM40 PGUM 012312
RWRGUM
WEATHER ROUNDUP FOR THE MARIANAS
NATIONAL WEATHER SERVICE TIYAN GU
900 AM CHST TUE SEP 02 2014

GUZ001>004-020000-
MARIANA ISLANDS-

CITY           SKY/WX    TMP DP  RH WIND       PRES   REMARKS
GUAM AIRPORT   MOSUNNY   86  75  70 SW6       29.82S HX  95
ANDERSEN AFB   MOSUNNY   84  73  70 S7        29.81F HX  91
ROTA AIRPORT   MOSUNNY   82  77  83 VRB5      29.81S HX  91
TINIAN AP      MOSUNNY   84  77  79 W5        29.77S HX  94
SAIPAN AP      MOSUNNY   84  77  79 W3        29.80R HX  94

$$



USA.gov is the U.S. government's official web portal to all federal, state and local government web resources and services.